Location: Axtheid
(49.6213°N, 11.8205°E)
Time: 17:25:51
(UTC+00:00)

Envisat - Pass Details

Date: 08 October 2022
Orbit: 763 x 765 km, 98.2° (Epoch: 30 November)

Event Time Altitude Azimuth Distance (km) Brightness Sun altitude
Rises 04:09:38 0° 11° (N) 3,246 6.5 -12.7°
Reaches altitude 10° 04:11:58 10° 7° (N) 2,315 5.7 -12.3°
Maximum altitude 04:16:58 58° 290° (WNW) 895 3.1 -11.5°
Drops below altitude 10° 04:21:55 10° 212° (SSW) 2,298 5.1 -10.7°
Sets 04:24:15 0° 209° (SSW) 3,220 5.9 -10.3°
